TimeCST,TemperatureF,Dew PointF,Humidity,Sea Level PressureIn,VisibilityMPH,Wind Direction,Wind SpeedMPH,Gust SpeedMPH,PrecipitationIn,Events,Conditions,WindDirDegrees,DateUTC
12:53 AM,25.0,19.0,78,30.37,10.0,WSW,4.6,-,N/A,,Clear,250,2013-01-06 06:53:00
1:53 AM,24.1,18.0,77,30.37,10.0,WSW,8.1,-,N/A,,Clear,250,2013-01-06 07:53:00
2:53 AM,23.0,16.0,74,30.38,10.0,West,6.9,-,N/A,,Clear,270,2013-01-06 08:53:00
4:53 AM,21.0,14.0,74,30.37,10.0,West,6.9,-,N/A,,Clear,280,2013-01-06 10:53:00
6:53 AM,19.0,12.0,74,30.40,10.0,West,9.2,-,N/A,,Clear,270,2013-01-06 12:53:00
7:53 AM,18.0,10.9,74,30.40,10.0,WNW,5.8,-,N/A,,Clear,290,2013-01-06 13:53:00
8:53 AM,19.0,10.9,71,30.41,10.0,West,10.4,-,N/A,,Clear,280,2013-01-06 14:53:00
9:53 AM,25.0,14.0,63,30.42,10.0,West,6.9,-,N/A,,Clear,260,2013-01-06 15:53:00
10:53 AM,30.0,17.1,59,30.40,10.0,WSW,4.6,-,N/A,,Clear,240,2013-01-06 16:53:00
11:53 AM,34.0,18.0,52,30.37,10.0,SW,4.6,-,N/A,,Clear,230,2013-01-06 17:53:00
12:53 PM,39.9,21.0,47,30.32,10.0,SSW,6.9,-,N/A,,Clear,210,2013-01-06 18:53:00
1:53 PM,41.0,25.0,53,30.29,10.0,SSW,10.4,-,N/A,,Clear,210,2013-01-06 19:53:00
3:53 PM,39.9,26.1,58,30.24,10.0,South,8.1,-,N/A,,Clear,190,2013-01-06 21:53:00
4:53 PM,37.9,27.0,65,30.22,10.0,South,6.9,-,N/A,,Clear,180,2013-01-06 22:53:00
5:53 PM,36.0,26.1,67,30.21,10.0,South,8.1,-,N/A,,Clear,190,2013-01-06 23:53:00
6:53 PM,34.0,25.0,70,30.20,10.0,South,6.9,-,N/A,,Clear,170,2013-01-07 00:53:00
7:53 PM,34.0,26.1,73,30.18,10.0,South,8.1,-,N/A,,Clear,180,2013-01-07 01:53:00
9:53 PM,35.1,27.0,72,30.13,10.0,SSW,10.4,18.4,N/A,,Clear,200,2013-01-07 03:53:00
10:53 PM,36.0,26.1,67,30.11,10.0,SW,13.8,-,N/A,,Clear,220,2013-01-07 04:53:00
11:53 PM,35.1,25.0,67,30.08,10.0,WSW,9.2,-,N/A,,Clear,240,2013-01-07 05:53:00